Home   Weather   Herne   Past weeks

Flag for Germany Past Weather in Herne, North Rhine-Westphalia, Germany — Yesterday and Last 2 Weeks

50 °F


Feels Like: 50 °F
Forecast: 47 / 51 °F
Wind: No wind

Location: Duesseldorf

Current Time: Oct 25, 2016 at 1:44:21 AM

Latest Report: Oct 25, 2016 at 12:50 AM

Visibility: 1 mi

Pressure: 29.98 "Hg

Humidity: 100%

Dew Point: 50 °F

Location of HerneLocation

Past Weather in Herne — Graph


Herne Temperature Yesterday

Maximum temperature yesterday: 50 °F (at 11:20 AM)
Minimum temperature yesterday: 41 °F (at 12:20 AM)
Average temperature yesterday: 47 °F

High & Low Weather Summary for the Past Weeks

High66 °F (Oct 16, 2:20 PM)100% (Oct 11, 12:50 AM)30.27 "Hg (Oct 11, 12:50 AM)
Low32 °F (Oct 23, 6:20 AM)52% (Oct 16, 2:20 PM)29.65 "Hg (Oct 15, 1:20 AM)
Average49 °F87%30.00 "Hg
* Reported Oct 10 12:20 AM — Oct 25 12:20 AM, Herne, Weather by CustomWeather, © 2016

Note: Actual official high and low records may vary slightly from our data, if they occured in-between our weather recording intervals... More about our weather records


Herne Weather History for the Previous 24 Hours

Scroll right to see more
Time TempWeatherWind HumidityBarometerVisibility
12:20 AM
Tue, Oct 25
50 °FFog.1 mph100%29.98 "Hg1 mi
11:50 PM
Mon, Oct 24
50 °FFog.3 mph100%29.98 "Hg1 mi
11:20 PM50 °FFog.2 mph100%29.98 "Hg2 mi
10:50 PM50 °FFog.2 mph100%29.95 "Hg2 mi
10:20 PM50 °FFog.3 mph100%29.95 "Hg2 mi
9:50 PM50 °FPassing clouds.3 mph100%29.95 "Hg2 mi
9:20 PM50 °FPassing clouds.2 mph100%29.95 "Hg3 mi
8:50 PM50 °FPassing clouds.2 mph100%29.92 "Hg3 mi
8:20 PM50 °FPassing clouds.1 mph100%29.95 "Hg3 mi
7:50 PM50 °FDrizzle. Fog.3 mph100%29.95 "Hg3 mi
7:20 PM50 °FDrizzle. Fog.3 mph100%29.92 "Hg3 mi
6:50 PM50 °FDrizzle. Fog.5 mph100%29.92 "Hg3 mi
6:20 PM50 °FDrizzle. Fog.6 mph100%29.92 "Hg2 mi
5:50 PM50 °FDrizzle. Fog.3 mph100%29.92 "Hg3 mi
5:20 PM50 °FFog.5 mph100%29.92 "Hg3 mi
4:50 PM50 °FFog.5 mph100%29.92 "Hg3 mi
4:20 PM50 °FDrizzle. Fog.5 mph100%29.89 "Hg2 mi
3:50 PM50 °FDrizzle. Fog.5 mph100%29.89 "Hg2 mi
3:20 PM50 °FDrizzle. Fog.6 mph100%29.89 "Hg3 mi
2:50 PM50 °FDrizzle. Fog.3 mph100%29.89 "Hg3 mi
2:20 PM50 °FLight rain. Partly sunny.3 mph94%29.89 "Hg4 mi
1:50 PM50 °FLight rain. Partly sunny.5 mph94%29.89 "Hg4 mi
1:20 PM48 °FLight rain. Partly sunny.5 mph100%29.89 "Hg4 mi
12:50 PM50 °FLight rain. Partly sunny.5 mph100%29.89 "Hg6 mi
12:20 PM50 °FLight rain. Partly sunny.1 mph94%29.89 "Hg5 mi
11:50 AM50 °FLight rain. Partly sunny.3 mph88%29.89 "HgN/A
11:20 AM50 °FPartly sunny.3 mph88%29.89 "HgN/A
10:50 AM48 °FMostly cloudy.5 mph94%29.89 "HgN/A
10:20 AM46 °FBroken clouds.3 mph93%29.89 "HgN/A
9:50 AM46 °FPassing clouds.3 mph93%29.89 "HgN/A
9:20 AM46 °FSunny.6 mph93%29.89 "Hg10 mi
8:50 AM46 °FSunny.6 mph93%29.89 "Hg10 mi
8:20 AM45 °FSunny.7 mph100%29.89 "Hg10 mi
7:50 AM45 °FLight rain. Passing clouds.6 mph100%29.89 "HgN/A
7:20 AM45 °FPassing clouds.7 mph93%29.89 "HgN/A
6:50 AM45 °FLight rain. Passing clouds.3 mph93%29.89 "HgN/A
6:20 AM45 °FClear.3 mph93%29.89 "Hg10 mi
5:50 AM45 °FPassing clouds.3 mph93%29.89 "HgN/A
5:20 AM45 °FClear.3 mph93%29.89 "Hg10 mi
4:50 AM45 °FClear.3 mph93%29.89 "Hg10 mi
4:20 AM43 °FClear.1 mph100%29.89 "Hg10 mi
3:50 AM43 °FClear.3 mph100%29.89 "Hg10 mi
3:20 AM43 °FClear.1 mph100%29.89 "Hg10 mi
2:50 AM43 °FClear.3 mph100%29.89 "Hg10 mi
2:20 AM43 °FFog.3 mph100%29.89 "HgN/A
1:50 AM43 °FFog.1 mph100%29.89 "HgN/A
1:20 AM43 °FFog.2 mph100%29.89 "HgN/A
Weather by CustomWeather, © 2016

See weather overviewHow to use our weather pages